Regional Weather Roundup
Issued by NWS

Home | Current Version | Previous Version | Text Only | Print | Product List | Glossary Off
Versions: 1 2 3 4 5 6 7 8 9 10 11 12 13 14 15 16 17 18 19 20 21 22 23 24 25 26 27 28 29 30 31 32 33 34 35 36 37 38 39 40 41 42 43 44

000
ASUS45 KSLC 260310
RWRUT

UTAH REGIONAL WEATHER ROUNDUP
NATIONAL WEATHER SERVICE SALT LAKE CITY UT
800 PM MST THU DEC 25 2014

UTZ001>011-023>025-260400-

NORTHERN UTAH

CITY           SKY/WX    TMP DP  RH WIND       PRES   REMARKS
BRIGHAM CITY   CLOUDY    29  22  75 N3        29.81R
HILL AFB       FLURRIES  26  26  99 N10       29.77R WCI  16
LOGAN          FLURRIES  24  23  96 N6        29.81R WCI  17
OGDEN          CLOUDY    27  24  89 N13G21    29.78R WCI  16
PROVO AIRPORT  NOT AVBL
SALT LAKE CITY CLOUDY    29  24  82 N17       29.80R WCI  17
VERNAL         CLOUDY    27  14  58 NE13      29.68R WCI  16
WENDOVER       CLOUDY    28  19  69 NW21G26   29.86S WCI  15
HEBER CITY     LGT SNOW  21  19  93 CALM      29.72R
WEST JORDAN    CLOUDY    28  28 100 NW14      29.79R WCI  17

$$

UTZ012>022-026-027-260400-

SOUTHERN/CENTRAL UTAH

CITY           SKY/WX    TMP DP  RH WIND       PRES   REMARKS
BLANDING       PTCLDY    26  19  77 NW8       29.72R WCI  17
BRYCE CANYON   PTCLDY     8   5  87 NW7       29.67R WCI  -3
CEDAR CITY     FLURRIES  17  15  92 CALM      29.76S
DELTA          CLOUDY    27  24  89 NW10      29.80R WCI  18
MILFORD        LGT SNOW  25  23  92 N6        29.79S FOG     WCI  18
MOAB/CYNLANDS  FLURRIES  28  25  88 SW7       29.68R WCI  21
PRICE          CLOUDY    28  12  51 NW13      29.65R WCI  17
ST GEORGE      CLOUDY    36  23  60 CALM      29.83R
KANAB            N/A     21  21 100 CALM      29.79S

$$

REGIONAL REPORTS     COLORADO/ARIZONA

CITY           SKY/WX    TMP DP  RH WIND       PRES   REMARKS
CRAIG, CO      CLOUDY    25  22  88 SW7       29.62R WCI  17
GRAND JUNCTION CLOUDY    28  25  88 N12       29.65R WCI  18
RIFLE          CLOUDY    29  27  92 W10       29.62R WCI  20
MONTROSE       PTCLDY    29  24  82 NE3       29.64R
CORTEZ         CLOUDY    30  20  66 CALM      29.67R
PAGE, AZ       PTCLDY    35  16  45 W8        29.70R WCI  29
GRAND CANYON   PTCLDY    21   8  57 VRB3      29.71R
KINGMAN        PTCLDY    37   9  31 NW8       29.82R WCI  31
FLAGSTAFF      PTCLDY    21   5  50 VRB7G17   29.68S WCI  12

$$

REGIONAL REPORTS    NEVADA/IDAHO/WYOMING

CITY           SKY/WX    TMP DP  RH WIND       PRES   REMARKS
LAS VEGAS, NV  PTCLDY    47  12  24 NW10G22   29.83R
ELY            CLOUDY    19  17  92 NW9       29.84R WCI   8
ELKO           CLOUDY    26  16  65 NW7       29.94R WCI  18
POCATELLO, ID  CLOUDY    28  18  66 N8        29.87R WCI  20
BURLEY         CLOUDY    27  21  78 W16       29.88R WCI  15
EVANSTON, WY   CLOUDY    18  15  88 E15       29.69R WCI   4
ROCK SPRINGS   LGT SNOW  16  12  84 NE28G38   29.71R FOG     WCI  -4

$$


USA.gov is the U.S. government's official web portal to all federal, state and local government web resources and services.